[[{"header":{"parameterUnit":"m.s-1","parameterCategory":1,"la1":30.2991,"la2":30.254,"lo1":-89.0895,"lo2":-89.0444,"dy":0.0017,"dx":0.0017,"nx":28,"ny":28,"refTime":"2025-02-12T09:00:00:Z","depth":0,"parameterNumber":2,"parameterNumberName":"U-component_of_WINDS"},"data":[0,0,0,0,0,0,0,0,0,0,0,0,0,0,0,0,0,0,0,0,0,0,0,0,0,0,0,0,0,0,0,0,0,0,0,0,0,0,0,0,0,0,0,0,0,0,0,0,0,0,0,0,0,0,0,0,0,0,0.3327,0.3327,0,0.337,0.3371,0.3371,0.3383,0.3383,0.3383,0.3383,0.3426,0.3428,0.3429,0,0,0,0,0,0,0,0,0,0,0,0,0,0.3252,0.3254,0.3327,0.3327,0.3328,0.337,0.3371,0.3371,0.3383,0.3383,0.3383,0.3382,0.3426,0.3428,0.3429,0,0,0,0,0,0,0,0,0,0,0,0,0,0.3289,0.3254,0.3327,0.3339,0.334,0.337,0.3371,0.3371,0.3383,0.3383,0.3383,0.3382,0.3425,0.3427,0.343,0.345,0,0,0.3436,0.3437,0,0,0,0,0,0,0,0,0.3287,0.3292,0.3337,0.3338,0.334,0.3371,0.3361,0.3398,0.3383,0.3367,0.3382,0.3382,0.3408,0.3412,0.3421,0.3452,0.3454,0.3436,0.3437,0.3438,0.3439,0,0,0,0,0,0,0,0.3284,0.329,0.3344,0.3337,0.3339,0.3342,0.3346,0.3368,0.3389,0.3368,0.3369,0.3374,0.3409,0.3419,0.3422,0.3454,0.3436,0.3438,0.3439,0.344,0.3503,0.3503,0,0,0,0,0,0,0.328,0.3288,0.3343,0.3345,0.3312,0.3343,0.3349,0.3361,0.3389,0.3393,0.3375,0.3375,0.3415,0.3419,0.3423,0.3448,0.3438,0.344,0.3441,0.3502,0.3503,0.3503,0,0,0,0,0,0,0.3278,0.3285,0.3341,0.3317,0.3324,0.3345,0.3359,0.3362,0.3372,0.3394,0.3397,0.3381,0.3415,0.342,0.3443,0.345,0.3441,0.3443,0.3502,0.3502,0.3503,0.3498,0,0,0,0,0,0,0.3276,0.3284,0.3293,0.3317,0.3325,0.336,0.336,0.3363,0.3376,0.3376,0.34,0.3404,0.3415,0.344,0.3445,0.3452,0.3445,0.3501,0.3502,0.3503,0.3497,0.3498,0.3499,0,0,0,0,0,0.3273,0.329,0.3293,0.33,0.3336,0.336,0.3365,0.3378,0.3376,0.3384,0.3398,0.3403,0.3448,0.3442,0.3448,0.3456,0.3501,0.3502,0.3503,0.3497,0.3498,0.3499,0,0,0,0,0,0,0.3266,0.3293,0.3297,0.3322,0.3339,0.3362,0.3374,0.3379,0.3397,0.3396,0.3411,0.3417,0.3438,0.3449,0.3442,0.3476,0.3474,0.3476,0.3468,0.3469,0.347,0.3467,0.3446,0,0,0,0,0,0.3267,0.3285,0.3307,0.3327,0.3335,0.3353,0.3364,0.3372,0.339,0.3397,0.3413,0.343,0.3447,0.3459,0.3477,0.3499,0.3504,0.3507,0.3508,0.3508,0.351,0.3521,0.3523,0.3506,0.3506,0.3506,0,0,0.327,0.3287,0.3297,0.3326,0.334,0.3357,0.3359,0.3377,0.339,0.34,0.3422,0.3434,0.3453,0.3475,0.3486,0.3486,0.3516,0.351,0.351,0.3511,0.3523,0.3524,0.3526,0.3507,0.3507,0.3506,0,0,0.3284,0.3299,0.3316,0.333,0.3351,0.3362,0.3366,0.3389,0.3397,0.3419,0.3426,0.3441,0.3472,0.3485,0.3496,0.3513,0.3518,0.3518,0.3521,0.3532,0.3534,0.3535,0.354,0.3542,0.3519,0.3519,0.3519,0,0.3284,0.3311,0.3324,0.3342,0.3354,0.3363,0.338,0.3393,0.3418,0.3426,0.3425,0.3463,0.3477,0.3501,0.3505,0.3514,0.3518,0.3516,0.3532,0.3534,0.3535,0.354,0.3542,0.3519,0.3519,0.3519,0.3519,0,0.331,0.3329,0.334,0.3364,0.3377,0.3395,0.3409,0.3421,0.3427,0.3438,0.346,0.3477,0.3497,0.3504,0.3511,0.3529,0.3528,0.353,0.3528,0.3536,0.3541,0.3543,0.3519,0.3519,0.3519,0.3519,0,0,0.3322,0.3352,0.3356,0.3366,0.3389,0.3403,0.342,0.344,0.3449,0.3466,0.348,0.3505,0.3506,0.3518,0.3527,0.3536,0.3547,0.3536,0.3537,0.3537,0.3567,0.3565,0.3567,0.355,0.355,0.3551,0.3565,0,0.3338,0.337,0.3381,0.3406,0.3423,0.3431,0.3445,0.3461,0.3471,0.3486,0.3497,0.3514,0.3514,0.3521,0.3531,0.3543,0.3553,0.3543,0.3562,0.3563,0.3557,0.357,0.3569,0.3582,0.3567,0.3567,0.3568,0,0.3362,0.3378,0.3405,0.3425,0.3432,0.3445,0.3464,0.3478,0.3495,0.3501,0.3514,0.3521,0.3538,0.3535,0.3558,0.3551,0.3559,0.3566,0.3567,0.357,0.3566,0.3573,0.3586,0.3588,0.3571,0.3571,0.357,0,0.3366,0.3396,0.3415,0.3424,0.3448,0.3456,0.3467,0.3483,0.3494,0.351,0.3516,0.3534,0.3543,0.3556,0.3568,0.3564,0.3589,0.3587,0.3595,0.3594,0.36,0.3599,0.3615,0.3605,0.3605,0.3605,0.3605,0,0.3383,0.34,0.3418,0.343,0.3447,0.346,0.3477,0.3487,0.3501,0.3515,0.3523,0.3535,0.3549,0.3563,0.3572,0.3589,0.3593,0.3599,0.3601,0.3598,0.3597,0.3604,0.3603,0.3606,0.3606,0.3606,0.3606,0,0.3392,0.3405,0.3427,0.3447,0.3452,0.3464,0.3481,0.3493,0.3503,0.352,0.3524,0.354,0.3556,0.3568,0.359,0.3596,0.3614,0.3616,0.3608,0.3609,0.3616,0.3615,0.3636,0.3639,0.3628,0.3628,0.3628,0,0.3402,0.3415,0.3436,0.3445,0.3456,0.3471,0.3482,0.3494,0.3504,0.3523,0.3532,0.3549,0.3564,0.359,0.3602,0.3618,0.3621,0.3627,0.3624,0.362,0.3621,0.362,0.3621,0.3628,0.3628,0.3628,0.3628,0,0.3418,0.3424,0.3439,0.3456,0.3469,0.3483,0.3497,0.3505,0.3519,0.353,0.3547,0.3558,0.358,0.3596,0.3613,0.3623,0.3627,0.3629,0.3631,0.3629,0.3624,0.3626,0.361,0.3629,0.3629,0.3629,0.3629,0.3629,0.3428,0.3439,0.3455,0.3472,0.3483,0.3496,0.3507,0.3518,0.3533,0.3551,0.3557,0.3574,0.3589,0.3612,0.3622,0.3635,0.3635,0.3639,0.364,0.364,0.364,0.3621,0.3638,0.3638,0.3638,0.3638,0.3638,0,0.3444,0.3454,0.347,0.3489,0.3501,0.3505,0.352,0.353,0.3545,0.3559,0.3572,0.3591,0.3607,0.362,0.3636,0.3644,0.3646,0.3647,0.3647,0.3649,0.3639,0.3636,0.3645,0.3645,0.3645,0.3645,0.3645,0.3645,0.3454,0.3472,0.3479,0.3503,0.3513,0.353,0.3539,0.355,0.3561,0.3581,0.3594,0.3603,0.3616,0.3632,0.3646,0.365,0.3655,0.3656,0.366,0.3651,0.365,0.3649,0.3645,0.3657,0.3657,0.3668,0.3668,0.3668]},{"header":{"parameterUnit":"m.s-1","parameterCategory":1,"la1":30.2991,"la2":30.254,"lo1":-89.0895,"lo2":-89.0444,"dy":0.0017,"dx":0.0017,"nx":28,"ny":28,"refTime":"2025-02-12T09:00:00:Z","depth":0,"parameterNumber":3,"parameterNumberName":"V-component_of_WINDS"},"data":[0,0,0,0,0,0,0,0,0,0,0,0,0,0,0,0,0,0,0,0,0,0,0,0,0,0,0,0,0,0,0,0,0,0,0,0,0,0,0,0,0,0,0,0,0,0,0,0,0,0,0,0,0,0,0,0,0,0,2.7013,2.7014,0,2.7117,2.7118,2.7119,2.7092,2.709,2.7088,2.7086,2.7192,2.7197,2.7201,0,0,0,0,0,0,0,0,0,0,0,0,0,2.679,2.6794,2.7013,2.7014,2.7015,2.7117,2.7118,2.7119,2.7093,2.709,2.7088,2.7085,2.719,2.7196,2.7202,0,0,0,0,0,0,0,0,0,0,0,0,0,2.6889,2.6795,2.7012,2.7014,2.7015,2.7116,2.7118,2.712,2.7093,2.709,2.7087,2.7084,2.7189,2.7195,2.7202,2.7308,0,0,2.7224,2.7227,0,0,0,0,0,0,0,0,2.6884,2.6898,2.7013,2.7014,2.7016,2.7088,2.7078,2.7183,2.7094,2.7064,2.7086,2.7082,2.716,2.7169,2.7195,2.7313,2.7317,2.7225,2.7229,2.7232,2.7234,0,0,0,0,0,0,0,2.6877,2.6893,2.7054,2.7014,2.7016,2.7009,2.702,2.7098,2.7128,2.7066,2.7064,2.7077,2.716,2.7189,2.7198,2.7319,2.7225,2.7231,2.7235,2.7238,2.7529,2.7532,0,0,0,0,0,0,2.6869,2.6887,2.705,2.7057,2.6941,2.7016,2.7028,2.7068,2.7127,2.7133,2.7079,2.7075,2.7178,2.7189,2.7201,2.733,2.7232,2.7239,2.7243,2.7525,2.753,2.7533,0,0,0,0,0,0,2.6864,2.6884,2.7046,2.6972,2.6992,2.7023,2.7068,2.7072,2.71,2.7137,2.7142,2.7103,2.7176,2.7191,2.7282,2.7333,2.7242,2.7248,2.7521,2.7527,2.7532,2.7586,0,0,0,0,0,0,2.6858,2.6882,2.6923,2.6973,2.6996,2.7126,2.7071,2.7076,2.7113,2.7108,2.7161,2.7166,2.7175,2.7271,2.7289,2.7341,2.7254,2.7517,2.7524,2.753,2.758,2.7593,2.7604,0,0,0,0,0,2.685,2.6934,2.6925,2.6945,2.7048,2.7128,2.7142,2.715,2.7117,2.7158,2.7182,2.7165,2.7324,2.7281,2.73,2.7355,2.7514,2.7522,2.7529,2.7575,2.759,2.7603,0,0,0,0,0,0,2.6888,2.694,2.6931,2.7034,2.7077,2.7124,2.7176,2.7166,2.7219,2.7213,2.722,2.7232,2.7325,2.7349,2.73,2.7461,2.7414,2.7426,2.7442,2.7457,2.7468,2.7461,2.726,0,0,0,0,0,2.6909,2.6971,2.7012,2.7099,2.7121,2.7145,2.718,2.7183,2.7228,2.7246,2.7276,2.732,2.738,2.742,2.7477,2.7583,2.7594,2.763,2.7642,2.7651,2.7662,2.7721,2.7738,2.7559,2.7559,2.7559,0,0,2.6952,2.6987,2.7026,2.7107,2.7141,2.7205,2.716,2.7229,2.7277,2.7256,2.7344,2.7368,2.7417,2.7516,2.7561,2.7539,2.7714,2.7661,2.7669,2.7674,2.7731,2.7748,2.7763,2.7564,2.7563,2.7563,0,0,2.7062,2.7095,2.7172,2.7206,2.7258,2.7274,2.7292,2.7341,2.7356,2.7444,2.743,2.7486,2.7589,2.7626,2.7657,2.7782,2.7769,2.78,2.7862,2.7919,2.7933,2.7946,2.7992,2.8008,2.7811,2.7811,2.7811,0,2.7109,2.7205,2.7212,2.7283,2.7319,2.7303,2.7381,2.7414,2.7482,2.7507,2.7481,2.7611,2.7643,2.7751,2.7781,2.7807,2.7829,2.7795,2.7931,2.7943,2.7955,2.7999,2.8016,2.7814,2.7814,2.7814,2.7813,0,2.726,2.7326,2.7381,2.7448,2.7491,2.7564,2.7582,2.7624,2.7623,2.7641,2.7731,2.7769,2.7834,2.786,2.7859,2.7968,2.7953,2.7929,2.7882,2.7976,2.8017,2.8034,2.782,2.7818,2.7817,2.7816,0,0,2.7398,2.7468,2.7488,2.7519,2.7575,2.7626,2.7699,2.7763,2.7799,2.7846,2.7908,2.7996,2.7974,2.8011,2.8014,2.8064,2.8161,2.8034,2.8035,2.8057,2.8285,2.8303,2.8323,2.8152,2.8155,2.8158,2.8281,0,2.7515,2.7644,2.7652,2.7769,2.7831,2.7817,2.788,2.7922,2.794,2.7995,2.8016,2.8078,2.8045,2.8067,2.8115,2.8139,2.8207,2.813,2.821,2.8213,2.82,2.8344,2.8364,2.8478,2.8297,2.83,2.8302,0,2.7668,2.7721,2.7844,2.7892,2.7918,2.7975,2.8035,2.8088,2.8134,2.8144,2.8185,2.8181,2.8256,2.8206,2.8309,2.8257,2.829,2.8307,2.8311,2.832,2.8264,2.8358,2.8514,2.8532,2.8327,2.8325,2.8323,0,2.7759,2.786,2.7947,2.7973,2.8031,2.8072,2.8098,2.8141,2.8179,2.8231,2.8256,2.8316,2.8349,2.8395,2.8407,2.837,2.8511,2.8462,2.8522,2.8522,2.8554,2.8552,2.8719,2.8573,2.8573,2.8572,2.8572,0,2.7889,2.7965,2.7988,2.8042,2.8127,2.8135,2.8219,2.8242,2.8281,2.8339,2.833,2.8385,2.8397,2.8454,2.8464,2.8549,2.8564,2.8574,2.8576,2.8576,2.8575,2.8599,2.8592,2.8577,2.8576,2.8575,2.8574,0,2.8004,2.8023,2.8117,2.8164,2.8178,2.8239,2.8279,2.8331,2.8348,2.8421,2.8439,2.8466,2.8533,2.855,2.8629,2.8636,2.8736,2.873,2.8721,2.8721,2.8781,2.8776,2.8971,2.8998,2.8832,2.8834,2.8835,0,2.8087,2.8145,2.8199,2.8237,2.8265,2.8327,2.8366,2.8377,2.8418,2.8475,2.852,2.8586,2.8639,2.8746,2.8773,2.8834,2.883,2.8894,2.8839,2.8837,2.8832,2.883,2.8836,2.8905,2.8907,2.8908,2.8909,0,2.8232,2.8238,2.8295,2.8356,2.8403,2.8451,2.8497,2.8529,2.8545,2.8592,2.866,2.8702,2.8783,2.8848,2.891,2.8936,2.8926,2.8926,2.8943,2.8945,2.8938,2.8944,2.8751,2.8922,2.8921,2.892,2.8919,2.8918,2.8334,2.8386,2.8432,2.8496,2.8532,2.8575,2.8626,2.865,2.8707,2.8775,2.8777,2.8852,2.8897,2.8978,2.9008,2.9067,2.9047,2.9072,2.9079,2.9085,2.9091,2.8927,2.9078,2.9077,2.9077,2.9077,2.9077,0,2.848,2.8509,2.8567,2.8632,2.8683,2.8668,2.8719,2.8762,2.8828,2.8871,2.8924,2.9002,2.9066,2.9098,2.9161,2.9202,2.9199,2.9218,2.9216,2.9223,2.9104,2.9084,2.922,2.922,2.922,2.922,2.922,2.922,2.8561,2.8649,2.8661,2.8765,2.8793,2.8867,2.8897,2.8937,2.8972,2.906,2.9113,2.9134,2.9173,2.9239,2.9297,2.9304,2.9329,2.9351,2.9356,2.9245,2.9231,2.9217,2.9198,2.9356,2.9356,2.947,2.9471,2.9472]}]]